TUBIN
1 48900U 21059X   25236.62277922  .00043785  00000-0  40882-3 0  9995
2 48900  97.6772  52.4199 0002317 299.7641  60.3389 15.67193530231928
LEDSAT
1 49069U 21073D   25236.21850888  .00115745  00000-0  84125-3 0  9995
2 49069  97.3825 321.5006 0007972 167.0632 193.0838 15.72973161223271
CUTE
1 49263U 21088D   25236.15829980  .00012981  00000-0  23226-3 0  9992
2 49263  97.4471 314.7617 0005214 328.6574  31.4366 15.50112209216125
TeikyoSat 4
1 49396U 21102B   25236.60508755  .00001348  00000-0  91649-4 0  9990
2 49396  97.4056 272.2820 0011197 227.5983 132.4299 15.07915679208002
Z-Sat
1 49399U 21102E   25236.59065157  .00003595  00000-0  19558-3 0  9999
2 49399  97.3749 275.8461 0017524 194.9262 165.1456 15.14955977208483
KOSEN 1
1 49402U 21102H   25236.60449494  .00005994  00000-0  27112-3 0  9996
2 49402  97.3646 279.8635 0016149 166.9187 193.2471 15.21168406208848
HO-113
1 50466U 21131B   25236.59320971  .00000401  00000-0  13888-3 0  9999
2 50466  98.5092 325.5735 0003004 265.3678  94.7167 14.40888750192393
SNUGLITE 2
1 52899U 22065F   25236.39189576  .00000983  00000-0  19940-3 0  9990
2 52899  98.1791  17.6755 0006653 229.3726 130.6898 14.63366491167576
UmKA 1 (RS40S)
1 57172U 23091G   25236.59307266  .00004638  00000-0  24362-3 0  9994
2 57172  97.5519 291.5906 0015619  74.5157 285.7799 15.16099193118992
CubeBel-2 (EU11S)
1 57175U 23091K   25236.61046136  .00007600  00000-0  34966-3 0  9999
2 57175  97.5517 293.2416 0013285  80.7687 279.5050 15.20543865119102
ENSO
1 58470U 23185J   25236.65355617  .00075981  00000-0  77165-3 0  9998
2 58470  97.3668 314.6497 0006769 165.2081 194.9378 15.64933171 96893
EIRSAT-1
1 58472U 23185L   25234.92109395  .00454362  85710-4  11363-2 0  9994
2 58472  97.3559 316.7292 0008027 228.3937 131.6652 15.95684718 96886
SONATE-2
1 59112U 24043Q   25236.60950790  .00015627  00000-0  41899-3 0  9990
2 59112  97.5228   9.4722 0010435 197.7336 162.3546 15.38017413 82017
MO-122
1 60209U 24125G   25236.53750319  .00016097  00000-0  42311-3 0  9999
2 60209  97.2709  87.4015 0016688 219.3778 140.6256 15.38528467 63624
GRBBeta
1 60237U 24128C   25236.25115213  .00004030  00000-0  30201-3 0  9999
2 60237  61.9912 175.6037 0056331  73.7566 286.9712 15.03188849 61570
Curium One
1 60242U 24128H   25236.55173514  .00007654  00000-0  51714-3 0  9993
2 60242  61.9811 171.6564 0056306  70.4307 290.2853 15.06079279 61678
ROBUSTA-3A
1 60243U 24128J   25236.24683535  .00006981  00000-0  48030-3 0  9998
2 60243  61.9883 173.8155 0055663  67.9452 292.7539 15.05545840 61618
CatSat
1 60246U 24125J   25236.56747822  .00015450  00000-0  48637-3 0  9997
2 60246  97.2520  85.7484 0040961 180.9440 179.1732 15.32181498 61613
HYPERVIEW-1G (RS66S)
1 61772U 24199AP  25236.59547714  .00018611  00000-0  49331-3 0  9998
2 61772  97.3412 105.3982 0010551 280.5155  79.4901 15.38328471 88634
AO-123
1 61781U 24199AY  25236.57127739  .00005741  00000-0  20439-3 0  9995
2 61781  97.3433 103.3566 0013699 290.7292  69.2479 15.29257204 88490
ZIMSAT 2
1 61783U 24199BA  25236.59599426  .00037612  00000-0  76808-3 0  9998
2 61783  97.3374 106.7104 0009234 271.6215  88.3976 15.46038378 91872
HADES-R (SO-124)
1 62690U 25009CK  25236.46716337  .00036970  00000-0  11146-2 0  9994
2 62690  97.4053 317.2188 0003892 175.2532 184.8749 15.34209344 33765
HYDRA-T
1 62692U 25009CM  25236.50202966  .00038520  00000-0  11462-2 0  9993
2 62692  97.4052 317.3247 0003712 172.1506 187.9796 15.34613808 33772
JINJUSat 1B
1 63210U 25052A   25236.49775226  .00009490  00000-0  41682-3 0  9992
2 63210  97.4307 129.6936 0006131  69.4027 290.7866 15.22119951 24795
NUSHSAT 1
1 63211U 25052B   25236.60885102  .00010690  00000-0  46359-3 0  9991
2 63211  97.4295 129.8291 0006265  73.0146 287.1777 15.22521349 24811
TEVEL2-4
1 63213U 25052D   25236.24447916  .00010399  00000-0  45615-3 0  9990
2 63213  97.4212 129.2252 0005569  86.4704 273.7169 15.22141884 24758
TEVEL2-5
1 63214U 25052E   25236.18057413  .00010311  00000-0  45278-3 0  9992
2 63214  97.4215 129.1585 0005553  86.2839 273.9033 15.22107451 24743
TEVEL2-6
1 63215U 25052F   25236.64488921  .00010679  00000-0  46919-3 0  9996
2 63215  97.4213 129.6096 0005614  85.9753 274.2125 15.22077821 24814
TEVEL2-1
1 63217U 25052H   25235.68105867  .00008948  00000-0  39675-3 0  9993
2 63217  97.4190 128.5545 0005827  96.4460 263.7440 15.21815345 24661
TEVEL2-3
1 63218U 25052J   25236.20724909  .00009249  00000-0  40981-3 0  9994
2 63218  97.4190 129.0749 0005875  95.7860 264.4046 15.21830452 24748
TEVEL2-2
1 63219U 25052K   25236.60225385  .00010107  00000-0  44751-3 0  9997
2 63219  97.4189 129.4625 0005820  94.7963 265.3938 15.21828965 24800
TEVEL2-9
1 63237U 25052AD  25236.13702192  .00008919  00000-0  41004-3 0  9997
2 63237  97.4252 128.8461 0010055 107.3286 252.9050 15.20545153 24718
TEVEL2-7
1 63238U 25052AE  25236.60346119  .00009196  00000-0  42349-3 0  9994
2 63238  97.4251 129.2959 0010116 106.0713 254.1637 15.20474506 24789
TEVEL2-8
1 63239U 25052AF  25236.14635161  .00008622  00000-0  39773-3 0  9992
2 63239  97.4258 128.8360 0010139 107.5446 252.6898 15.20434862 24718
HYDRA-W
1 63490U 25052BL  25235.94220550  .00023996  00000-0  90865-3 0  9990
2 63490  97.4199 129.4512 0013878 105.2836 254.9938 15.26823886 24745
HADES-ICM (SO-125)
1 63492U 25052BN  25236.18012835  .00022969  00000-0  88703-3 0  9991
2 63492  97.4204 129.6045 0014006 107.7661 252.5108 15.26177915 24775
